Lid_Strength_Index
5 5 4 4 3 4 6 9 11 6 6 11 12 12 10 8 9 9 10 11 11 12 13 14 15 14 14 13 14 16 16 17 19 19 18 17 19 20 19 22 22 23 24 20
6 6 5 4 4 5 8 10 10 7 7 13 13 11 9 9 9 10 10 11 10 11 13 14 14 14 13 13 14 15 15 18 20 20 19 18 20 19 19 20 21 22 24 20
7 6 6 5 5 3 8 10 12 10 10 11 12 12 11 12 10 9 10 10 11 12 13 13 14 15 14 14 13 10 13 17 18 20 19 18 20 19 19 20 25 23 21 19
7 7 6 5 5 4 7 10 12 10 13 12 11 12 11 11 12 10 10 11 11 12 14 14 14 15 16 15 12 15 15 18 18 17 16 17 18 18 20 21 20 20 19 19
6 7 6 6 5 4 7 10 11 10 12 10 11 12 12 10 11 12 12 12 10 11 13 13 14 14 16 16 16 16 17 18 18 18 18 18 19 18 18 20 20 20 19 19
7 7 7 6 5 5 6 6 8 10 11 12 12 12 11 10 10 11 11 11 11 12 11 13 14 14 14 15 16 17 17 17 19 20 18 19 19 19 18 19 19 19 20 18
7 7 6 7 6 5 6 6 7 11 13 11 11 10 10 11 10 11 12 13 12 12 12 13 13 14 15 15 16 16 18 17 20 22 19 22 17 17 17 17 17 18 18 18
8 7 6 6 5 5 6 5 8 8 12 10 10 10 11 12 13 13 13 13 13 13 12 15 16 17 17 17 17 17 16 18 22 21 21 18 18 18 17 18 16 15 17 18
6 6 6 6 6 6 7 6 4 7 10 10 8 9 10 13 15 14 14 13 13 11 13 16 18 18 17 19 19 17 16 17 19 23 23 21 17 17 16 16 18 16 16 18
6 6 6 6 6 6 8 7 5 6 9 9 10 11 11 11 13 15 15 15 13 11 16 17 18 16 16 19 19 20 21 22 21 22 23 18 16 16 16 18 17 16 16 18
6 6 6 6 6 6 7 7 6 6 8 7 8 9 11 11 12 14 14 14 14 16 15 16 15 15 15 18 18 19 19 21 23 22 22 19 16 17 17 15 16 16 17 18
6 6 6 6 6 6 6 7 6 6 8 7 9 10 9 9 11 12 14 13 14 13 15 15 14 15 16 17 18 18 18 17 18 17 17 15 15 15 15 15 15 16 16 18
6 6 6 6 6 6 7 8 7 7 9 8 8 8 10 10 10 10 13 13 12 12 12 13 15 14 15 18 16 17 17 15 15 16 14 14 14 14 16 15 15 16 16 17
6 6 7 7 6 6 7 11 7 8 8 11 9 10 12 10 10 11 11 10 10 10 11 15 15 15 13 14 14 15 15 14 15 15 14 15 13 13 14 15 15 16 16 17
7 7 7 7 6 6 8 10 9 6 9 12 10 9 10 11 10 11 11 11 11 12 14 14 16 13 13 15 16 17 15 14 15 14 12 13 13 14 14 14 14 15 16 17
7 7 7 6 7 7 10 13 7 6 6 11 13 9 12 11 10 11 12 11 11 11 14 14 14 13 13 17 17 13 14 14 13 12 13 13 14 14 14 14 14 15 16 16
6 7 7 7 7 10 13 11 7 5 6 11 13 12 12 12 12 12 11 12 12 12 13 15 13 15 15 19 16 12 12 12 13 14 14 14 14 13 15 15 15 13 16 16
6 7 7 7 7 8 11 10 5 5 8 9 13 13 14 12 14 14 12 13 13 13 13 16 15 17 18 19 14 11 10 11 12 13 13 13 14 15 15 16 15 16 17 17
6 7 7 9 11 13 12 5 5 6 8 13 13 13 16 13 15 14 13 12 14 14 16 16 15 17 19 16 14 12 11 10 9 11 14 15 14 14 16 16 16 16 16 17
6 9 11 16 10 5 5 7 9 10 11 11 13 11 13 14 15 17 15 13 13 15 14 15 17 17 14 14 13 11 10 10 11 14 15 16 15 15 16 15 15 15 15 16
11 13 14 10 6 8 9 12 13 12 14 12 12 11 13 11 14 14 12 13 13 15 16 15 17 18 13 12 12 11 10 10 11 10 10 12 12 13 15 16 15 15 16 16
10 11 10 11 13 11 13 14 13 13 15 13 12 11 13 14 11 12 13 13 14 16 15 18 18 15 13 12 11 10 9 8 9 10 10 12 13 14 13 14 15 15 15 16
10 13 19 18 18 16 16 20 14 14 12 11 11 12 12 13 12 11 13 14 15 14 19 19 18 14 12 11 10 10 9 9 9 9 10 12 13 14 13 14 14 15 16 16
17 21 20 17 17 17 18 16 12 10 9 10 9 12 12 11 12 12 14 13 13 18 21 19 15 13 12 11 11 10 10 11 11 10 11 11 12 13 13 13 14 15 16 16
19 20 24 22 16 14 14 11 11 9 8 8 10 11 11 12 13 13 13 15 17 18 17 15 13 14 14 14 14 14 13 12 12 11 12 12 12 13 14 14 14 15 15 17
18 22 22 16 15 18 13 12 12 10 10 8 9 11 12 13 12 14 16 14 17 17 14 12 14 14 14 15 15 14 14 14 14 12 12 12 13 14 14 15 15 15 16 16
18 20 16 16 15 16 17 13 13 11 13 12 11 13 14 12 13 15 12 13 12 12 12 11 12 13 14 14 14 14 14 14 15 14 14 14 14 15 15 16 16 16 16 16